SCP
0 0 0 0 0 0 0 0 0 0 0 0 0 0 0 0 0 0 0 0 0 0 0 0 0 0 0 0 0 0 0 0 0 0 0 0 0 0
0 0 0 0 0 0 0 0 0 0 0 0 0 0 0 0 0 0 0 0 0 0 0 0 0 0 0 0 0 0 0 0 0 0 0 0 0 0
0 0 0 0 0 0 0 0 0 0 0 0 0 0 0 0 0 0 0 0 0 0 0 0 0 0 0 0 0 0 0 0 0 0 0 0 0 0
0 0 0 0 0 0 0 0 0 0 0 0 0 0 0 0 0 0 0 0 0 0 0 0 0 0 0 0 0 0 0 0 0 0 0 0 0 0
0 0 0 0 0 0 0 0 0 0 0 0 0 0 0 0 0 0 0 0 0 0 0 0 0 0 0 0 0 0 0 0 0 0 0 0 0 0
0 0 0 0 0 0 0 0 0 0 0 0 0 0 0 0 0 0 0 0 0 0 0 0 0 0 0 0 0 0 0 0 0 0 0 0 0 0
0 0 0 0 0 0 0 0 0 0 0 0 0 0 0 0 0 0 0 0 0 0 0 0 0 0 0 0 0 0 0 0 0 0 0 0 0 0
0 0 0 0 0 0 0 0 0 0 0 0 0 0 0 0 0 0 0 0 0 0 0 0 0 0 0 0 0 0 0 0 0 0 0 0 0 0
0 0 0 0 0 0 0 0 0 0 0 0 0 0 0 0 0 0 0 0 0 0 0 0 0 0 0 0 0 0 0 0 0 0 0 0 0 0
0 0 0 0 0 0 0 0 0 0 0 0 0 0 0 0 0 0 0 0 0 0 0 0 0 0 0 0 0 0 0 0 0 0 0 0 0 0
0 0 0 0 0 0 0 0 0 0 0 0 0 0 0 0 0 0 0 0 0 0 0 0 0 0 0 0 0 0 0 0 0 0 0 0 0 0
0 0 0 0 0 0 0 0 0 0 0 0 0 0 0 0 0 0 0 0 0 0 0 0 0 0 0 0 0 0 0 0 0 0 0 0 0 0
0 0 0 0 0 0 0 0 0 0 0 0 0 0 0 0 0 0 0 0 0 0 0 0 0 0 0 0 0 0 0 0 0 0 0 0 0 0
0 0 0 0 0 0 0 0 0 0 0 0 0 0 0 0 0 0 0 0 0 0 0 0 0 0 0 0 0 0 0 0 0 0 0 0 0 0
0 0 0 0 0 0 0 0 0 0 0 0 0 0 0 0 0 0 0 0 0 0 0 0 0 0 0 0 0 0 0 0 0 0 0 0 0 0
0 0 0 0 0 0 0 0 0 0 0 0 0 0 0 0 0 0 0 0 0 0 0 0 0 0 0 0 0 0 0 0 0 0 0 0 0 0
0 0 0 0 0 0 0 0 0 0 0 0 0 0 0 0 0 0 0 0 0 0 0 0 0 0 0 0 0 0 0 0 0 0 0 0 0 0
0 0 0 0 0 0 0 0 0 0 0 0 0 0 0 0 0 0 0 0 0 0 0 0 0 0 0 0 0 0 0 0 0 0 0 0 0 0
0 0 0 0 0 0 0 0 0 0 0 0 0 0 0 0 0 0 0 0 0 0 0 0 0 0 0 0 0 0 0 0 0 0 0 0 0 0
0 0 0 0 0 0 0 0 0 0 0 0 0 0 0 0 0 0 0 0 0 0 0 0 0 0 0 0 0 0 0 0 0 0 0 0 0 0
0 0 0 0 0 0 0 0 0 0 0 0 0 0 0 0 0 0 0 0 0 0 0 0 0 0 0 0 0 0 0 0 0 0 0 0 0 0
0 0 0 0 0 0 0 0 0 0 0 0 0 0 0 0 0 0 0 0 0 0 0 0 0 0 0 0 0 0 0 0 0 0 0 0 0 0
0 0 0 0 0 0 0 0 0 0 0 0 0 0 0 0 0 0 0 0 0 0 0 0 0 0 0 0 0 0 0 0 0 0 0 0 0 0
Wind_Speed_500mb
107 107 108 104 102 97 95 91 89 66 66 83 70 62 45 38 42 41 44 45 46 51 54 58 62 63 69 65 54 54 55 57 61 66 62 66 69 68
112 111 109 107 107 102 101 96 91 89 79 81 74 68 57 49 42 47 47 43 51 55 58 62 63 67 72 70 60 56 54 57 60 66 56 57 58 62
112 113 110 107 106 103 101 101 95 92 89 87 80 81 65 66 54 49 54 51 58 60 65 63 67 66 62 60 45 49 50 52 58 58 50 60 57 63
111 112 111 107 102 100 96 98 93 92 86 87 83 83 71 71 58 57 54 59 57 60 65 67 61 54 45 39 33 35 45 49 54 53 58 60 61 64
111 110 109 107 105 101 100 101 98 94 92 87 85 82 74 73 65 57 61 61 62 63 68 58 41 39 35 35 34 38 39 43 48 55 59 60 60 63
111 112 109 106 100 96 100 104 100 95 94 87 84 83 82 73 67 59 60 67 60 62 65 36 34 34 32 35 38 39 41 44 47 49 53 54 55 58
112 111 111 105 98 99 99 107 98 95 95 88 83 84 85 76 67 63 66 60 61 61 45 33 32 28 31 33 37 39 39 40 43 45 47 48 50 53
115 112 108 109 108 100 107 97 91 93 94 89 84 90 81 77 77 65 65 61 60 55 37 34 30 28 30 30 31 31 32 30 32 35 39 41 45 49
115 111 111 111 106 103 98 95 93 89 85 75 89 84 80 70 69 67 66 68 59 43 31 31 31 31 31 31 29 25 26 28 27 27 29 32 35 40
116 112 109 107 103 100 96 96 93 91 86 81 76 81 70 62 68 67 62 53 47 42 39 37 32 37 34 32 32 33 30 24 24 27 27 30 33 35
117 113 108 105 104 96 89 90 94 93 88 87 79 70 68 70 71 67 62 55 51 49 43 39 32 36 34 32 31 30 26 24 25 25 26 27 29 29
114 115 106 100 96 86 84 89 99 96 90 87 77 71 75 72 67 62 55 57 52 44 50 49 37 38 26 36 34 36 25 24 26 22 23 24 27 29
110 106 102 94 93 84 90 95 98 90 89 82 74 74 73 67 64 58 54 51 52 52 31 49 46 42 30 22 39 38 27 26 23 19 17 22 25 29
100 96 96 91 90 90 93 91 90 84 84 77 75 78 73 69 63 58 54 53 52 50 39 40 38 40 37 35 28 35 30 26 20 19 22 21 23 30
98 100 95 91 91 94 93 90 86 87 80 79 81 80 74 65 59 59 57 56 52 51 45 40 36 32 31 30 24 25 24 18 21 21 23 27 34 40
96 91 86 85 89 94 90 86 87 85 84 86 82 77 69 65 67 66 64 59 55 52 48 42 38 35 32 26 23 21 18 13 19 26 27 31 37 41
91 88 88 87 87 89 86 87 86 84 83 81 81 80 76 75 73 68 61 58 58 56 52 46 41 35 29 26 26 21 20 17 22 25 34 35 38 41
86 93 92 90 90 90 87 89 87 86 85 84 83 80 83 84 79 75 66 63 59 55 50 47 44 40 34 30 28 25 21 21 23 30 34 40 37 37
87 95 96 95 92 92 96 99 96 90 86 84 84 85 84 84 79 77 67 63 59 55 51 48 45 42 39 37 29 29 24 23 25 31 33 37 40 39
82 101 102 98 96 98 98 99 98 92 88 87 88 87 85 84 84 77 73 68 65 60 55 52 49 46 41 35 29 24 22 25 28 31 34 35 36 38
77 86 89 90 88 87 93 96 94 90 93 96 94 92 89 86 81 77 75 72 65 58 55 53 49 45 41 36 30 24 21 23 27 31 35 37 39 41
64 77 85 85 82 82 84 86 89 94 102 106 103 97 91 86 86 83 78 70 62 53 56 52 51 48 44 37 29 23 20 21 23 27 31 35 36 30
63 67 80 84 83 80 81 86 92 98 103 105 102 96 88 87 83 74 66 59 53 59 61 59 55 49 42 34 28 24 22 22 20 20 24 29 31 32
Wind_Direction_500mb
249 249 250 253 255 256 256 255 256 257 263 275 277 280 277 250 261 262 254 264 258 269 277 274 275 278 282 286 272 264 256 254 249 256 255 251 256 257
252 252 252 252 254 256 257 257 256 256 255 266 271 271 277 269 255 262 262 268 261 274 277 276 276 280 283 284 276 264 259 256 256 261 254 251 255 259
253 253 254 254 252 254 256 257 256 255 255 264 262 263 269 259 261 266 259 266 268 272 276 274 274 279 280 285 283 260 258 259 258 258 244 248 252 252
253 253 254 253 250 253 253 253 256 258 260 255 257 262 262 259 258 266 262 271 264 274 281 283 282 279 271 266 267 255 254 254 257 252 250 252 252 255
254 254 255 254 253 255 255 256 259 260 257 256 256 259 259 254 244 255 257 255 266 276 286 286 274 272 262 267 265 262 262 262 254 250 254 257 258 258
257 256 255 254 256 258 255 257 256 256 255 255 254 256 254 252 241 253 259 255 266 274 285 274 270 267 258 256 258 255 252 254 255 257 256 259 261 264
258 256 256 254 248 252 258 254 255 252 251 251 250 249 247 244 243 259 264 259 265 275 273 256 261 258 259 257 255 257 258 255 259 260 257 258 262 264
257 257 257 254 252 251 252 256 251 250 249 247 247 246 248 247 260 254 254 253 264 267 253 244 255 255 252 250 257 259 258 256 261 261 263 266 268 269
258 257 257 255 254 253 254 252 251 251 250 247 248 247 253 260 251 257 255 254 259 250 251 243 247 237 242 251 252 249 248 250 254 260 267 271 275 281
253 252 253 257 259 255 252 248 248 247 245 244 249 252 251 250 252 255 257 249 233 234 238 241 225 226 235 232 236 238 237 236 258 275 280 284 289 290
256 256 256 257 257 256 253 251 246 244 242 242 242 238 250 252 249 249 233 221 221 228 230 226 219 218 225 231 227 223 210 265 272 275 280 283 287 293
254 252 253 255 258 257 253 250 245 241 238 237 229 244 248 247 248 239 233 228 224 223 219 217 221 209 222 220 222 212 245 270 272 277 281 288 296 302
255 252 252 254 256 255 251 250 248 240 236 230 240 246 243 241 233 226 225 223 221 223 221 209 204 208 211 213 217 225 257 256 273 275 280 291 292 303
254 253 252 252 253 253 249 247 242 236 227 234 240 237 236 228 222 217 217 216 217 225 225 210 214 209 210 211 213 229 233 252 253 246 273 281 294 301
254 254 254 254 253 249 244 239 232 223 225 230 234 235 232 227 217 210 212 215 217 221 218 217 220 222 218 221 221 213 220 229 235 261 285 299 309 311
250 250 249 247 247 243 235 228 224 226 230 234 234 232 225 214 211 213 213 215 213 215 215 218 218 219 222 221 214 206 219 226 246 280 296 309 310 311
249 246 242 238 232 224 219 222 224 226 228 229 226 225 215 211 211 212 215 216 213 210 208 207 207 210 210 213 218 217 224 248 263 283 300 309 313 315
247 239 233 227 221 219 220 225 226 229 227 223 220 218 213 209 209 210 213 214 209 206 203 202 202 201 204 212 221 218 229 254 274 298 303 307 314 316
243 235 231 226 223 227 229 229 228 223 221 218 216 213 211 211 209 210 210 208 202 202 202 204 204 204 204 208 217 221 242 266 288 296 305 309 316 322
243 235 233 232 232 234 232 229 225 220 216 215 213 213 211 212 209 209 206 203 203 201 202 205 206 208 211 213 218 227 247 271 288 303 308 310 316 322
242 238 239 240 239 239 232 227 226 222 216 213 211 211 209 210 211 208 203 203 203 204 207 211 210 208 208 212 222 230 251 279 296 305 311 316 319 321
250 247 247 247 245 240 235 232 229 224 219 213 211 211 209 207 208 205 203 202 201 210 215 212 210 210 212 217 226 237 253 271 290 302 310 314 314 309
256 252 250 247 244 241 238 234 230 227 221 217 212 209 207 203 202 203 201 202 210 210 210 210 210 212 215 220 230 243 257 272 283 291 298 303 303 302
Wind_Speed_850mb
107 107 108 104 102 97 95 91 89 66 66 83 70 62 45 38 42 41 44 45 46 51 54 58 62 63 69 65 54 54 55 57 61 66 62 66 69 68
112 111 109 107 107 102 101 96 91 89 79 81 74 68 57 49 42 47 47 43 51 55 58 62 63 67 72 70 60 56 54 57 60 66 56 57 58 62
112 113 110 107 106 103 101 101 95 92 89 87 80 81 65 66 54 49 54 51 58 60 65 63 67 66 62 60 45 49 50 52 58 58 50 60 57 63
111 112 111 107 102 100 96 98 93 92 86 87 83 83 71 71 58 57 54 59 57 60 65 67 61 54 45 39 33 35 45 49 54 53 58 60 61 64
111 110 109 107 105 101 100 101 98 94 92 87 85 82 74 73 65 57 61 61 62 63 68 58 41 39 35 35 34 38 39 43 48 55 59 60 60 63
111 112 109 106 100 96 100 104 100 95 94 87 84 83 82 73 67 59 60 67 60 62 65 36 34 34 32 35 38 39 41 44 47 49 53 54 55 58
112 111 111 105 98 99 99 107 98 95 95 88 83 84 85 76 67 63 66 60 61 61 45 33 32 28 31 33 37 39 39 40 43 45 47 48 50 53
115 112 108 109 108 100 107 97 91 93 94 89 84 90 81 77 77 65 65 61 60 55 37 34 30 28 30 30 31 31 32 30 32 35 39 41 45 49
115 111 111 111 106 103 98 95 93 89 85 75 89 84 80 70 69 67 66 68 59 43 31 31 31 31 31 31 29 25 26 28 27 27 29 32 35 40
116 112 109 107 103 100 96 96 93 91 86 81 76 81 70 62 68 67 62 53 47 42 39 37 32 37 34 32 32 33 30 24 24 27 27 30 33 35
117 113 108 105 104 96 89 90 94 93 88 87 79 70 68 70 71 67 62 55 51 49 43 39 32 36 34 32 31 30 26 24 25 25 26 27 29 29
114 115 106 100 96 86 84 89 99 96 90 87 77 71 75 72 67 62 55 57 52 44 50 49 37 38 26 36 34 36 25 24 26 22 23 24 27 29
110 106 102 94 93 84 90 95 98 90 89 82 74 74 73 67 64 58 54 51 52 52 31 49 46 42 30 22 39 38 27 26 23 19 17 22 25 29
100 96 96 91 90 90 93 91 90 84 84 77 75 78 73 69 63 58 54 53 52 50 39 40 38 40 37 35 28 35 30 26 20 19 22 21 23 30
98 100 95 91 91 94 93 90 86 87 80 79 81 80 74 65 59 59 57 56 52 51 45 40 36 32 31 30 24 25 24 18 21 21 23 27 34 40
96 91 86 85 89 94 90 86 87 85 84 86 82 77 69 65 67 66 64 59 55 52 48 42 38 35 32 26 23 21 18 13 19 26 27 31 37 41
91 88 88 87 87 89 86 87 86 84 83 81 81 80 76 75 73 68 61 58 58 56 52 46 41 35 29 26 26 21 20 17 22 25 34 35 38 41
86 93 92 90 90 90 87 89 87 86 85 84 83 80 83 84 79 75 66 63 59 55 50 47 44 40 34 30 28 25 21 21 23 30 34 40 37 37
87 95 96 95 92 92 96 99 96 90 86 84 84 85 84 84 79 77 67 63 59 55 51 48 45 42 39 37 29 29 24 23 25 31 33 37 40 39
82 101 102 98 96 98 98 99 98 92 88 87 88 87 85 84 84 77 73 68 65 60 55 52 49 46 41 35 29 24 22 25 28 31 34 35 36 38
77 86 89 90 88 87 93 96 94 90 93 96 94 92 89 86 81 77 75 72 65 58 55 53 49 45 41 36 30 24 21 23 27 31 35 37 39 41
64 77 85 85 82 82 84 86 89 94 102 106 103 97 91 86 86 83 78 70 62 53 56 52 51 48 44 37 29 23 20 21 23 27 31 35 36 30
63 67 80 84 83 80 81 86 92 98 103 105 102 96 88 87 83 74 66 59 53 59 61 59 55 49 42 34 28 24 22 22 20 20 24 29 31 32
Wind_Direction_850mb
249 249 250 253 255 256 256 255 256 257 263 275 277 280 277 250 261 262 254 264 258 269 277 274 275 278 282 286 272 264 256 254 249 256 255 251 256 257
252 252 252 252 254 256 257 257 256 256 255 266 271 271 277 269 255 262 262 268 261 274 277 276 276 280 283 284 276 264 259 256 256 261 254 251 255 259
253 253 254 254 252 254 256 257 256 255 255 264 262 263 269 259 261 266 259 266 268 272 276 274 274 279 280 285 283 260 258 259 258 258 244 248 252 252
253 253 254 253 250 253 253 253 256 258 260 255 257 262 262 259 258 266 262 271 264 274 281 283 282 279 271 266 267 255 254 254 257 252 250 252 252 255
254 254 255 254 253 255 255 256 259 260 257 256 256 259 259 254 244 255 257 255 266 276 286 286 274 272 262 267 265 262 262 262 254 250 254 257 258 258
257 256 255 254 256 258 255 257 256 256 255 255 254 256 254 252 241 253 259 255 266 274 285 274 270 267 258 256 258 255 252 254 255 257 256 259 261 264
258 256 256 254 248 252 258 254 255 252 251 251 250 249 247 244 243 259 264 259 265 275 273 256 261 258 259 257 255 257 258 255 259 260 257 258 262 264
257 257 257 254 252 251 252 256 251 250 249 247 247 246 248 247 260 254 254 253 264 267 253 244 255 255 252 250 257 259 258 256 261 261 263 266 268 269
258 257 257 255 254 253 254 252 251 251 250 247 248 247 253 260 251 257 255 254 259 250 251 243 247 237 242 251 252 249 248 250 254 260 267 271 275 281
253 252 253 257 259 255 252 248 248 247 245 244 249 252 251 250 252 255 257 249 233 234 238 241 225 226 235 232 236 238 237 236 258 275 280 284 289 290
256 256 256 257 257 256 253 251 246 244 242 242 242 238 250 252 249 249 233 221 221 228 230 226 219 218 225 231 227 223 210 265 272 275 280 283 287 293
254 252 253 255 258 257 253 250 245 241 238 237 229 244 248 247 248 239 233 228 224 223 219 217 221 209 222 220 222 212 245 270 272 277 281 288 296 302
255 252 252 254 256 255 251 250 248 240 236 230 240 246 243 241 233 226 225 223 221 223 221 209 204 208 211 213 217 225 257 256 273 275 280 291 292 303
254 253 252 252 253 253 249 247 242 236 227 234 240 237 236 228 222 217 217 216 217 225 225 210 214 209 210 211 213 229 233 252 253 246 273 281 294 301
254 254 254 254 253 249 244 239 232 223 225 230 234 235 232 227 217 210 212 215 217 221 218 217 220 222 218 221 221 213 220 229 235 261 285 299 309 311
250 250 249 247 247 243 235 228 224 226 230 234 234 232 225 214 211 213 213 215 213 215 215 218 218 219 222 221 214 206 219 226 246 280 296 309 310 311
249 246 242 238 232 224 219 222 224 226 228 229 226 225 215 211 211 212 215 216 213 210 208 207 207 210 210 213 218 217 224 248 263 283 300 309 313 315
247 239 233 227 221 219 220 225 226 229 227 223 220 218 213 209 209 210 213 214 209 206 203 202 202 201 204 212 221 218 229 254 274 298 303 307 314 316
243 235 231 226 223 227 229 229 228 223 221 218 216 213 211 211 209 210 210 208 202 202 202 204 204 204 204 208 217 221 242 266 288 296 305 309 316 322
243 235 233 232 232 234 232 229 225 220 216 215 213 213 211 212 209 209 206 203 203 201 202 205 206 208 211 213 218 227 247 271 288 303 308 310 316 322
242 238 239 240 239 239 232 227 226 222 216 213 211 211 209 210 211 208 203 203 203 204 207 211 210 208 208 212 222 230 251 279 296 305 311 316 319 321
250 247 247 247 245 240 235 232 229 224 219 213 211 211 209 207 208 205 203 202 201 210 215 212 210 210 212 217 226 237 253 271 290 302 310 314 314 309
256 252 250 247 244 241 238 234 230 227 221 217 212 209 207 203 202 203 201 202 210 210 210 210 210 212 215 220 230 243 257 272 283 291 298 303 303 302